Time,TemperatureF,DewpointF,PressureIn,WindDirection,WindDirectionDegrees,WindSpeedMPH,WindSpeedGustMPH,Humidity,HourlyPrecipIn,Conditions,Clouds,dailyrainin,SoftwareType,DateUTC
2013-07-07 01:22:00,75.0,64.0,29.58,East,86,0.0,2.0,69,0.00,,,0.00,,2013-07-07 06:22:00,
2013-07-07 01:32:00,73.0,64.0,29.58,ENE,70,1.0,4.0,74,0.00,,,0.00,,2013-07-07 06:32:00,
2013-07-07 01:43:00,73.0,64.0,29.58,ENE,70,1.0,4.0,74,0.00,,,0.00,,2013-07-07 06:43:00,
2013-07-07 01:52:00,72.0,64.0,29.59,ENE,74,0.0,3.0,75,0.00,,,0.00,,2013-07-07 06:52:00,
2013-07-07 02:02:00,72.0,64.0,29.59,ENE,74,0.0,3.0,75,0.00,,,0.00,,2013-07-07 07:02:00,
2013-07-07 02:11:00,73.0,64.0,29.60,South,171,0.0,3.0,74,0.00,,,0.00,,2013-07-07 07:11:00,
2013-07-07 02:22:00,71.0,63.0,29.61,SSE,157,0.0,2.0,77,0.00,,,0.00,,2013-07-07 07:22:00,
2013-07-07 02:33:00,71.0,63.0,29.61,SSE,157,0.0,2.0,77,0.00,,,0.00,,2013-07-07 07:33:00,
2013-07-07 02:44:00,70.0,63.0,29.61,North,9,0.0,3.0,79,0.00,,,0.00,,2013-07-07 07:44:00,
2013-07-07 02:53:00,69.0,63.0,29.62,NNW,335,0.0,3.0,81,0.00,,,0.00,,2013-07-07 07:53:00,
2013-07-07 03:02:00,69.0,63.0,29.62,NNW,335,0.0,3.0,81,0.00,,,0.00,,2013-07-07 08:02:00,
2013-07-07 03:12:00,68.0,63.0,29.62,NNW,327,1.0,3.0,83,0.00,,,0.00,,2013-07-07 08:12:00,
2013-07-07 03:22:00,67.0,62.0,29.62,NW,316,1.0,3.0,85,0.00,,,0.00,,2013-07-07 08:22:00,
2013-07-07 03:34:00,67.0,62.0,29.62,NW,316,1.0,3.0,85,0.00,,,0.00,,2013-07-07 08:34:00,
2013-07-07 03:44:00,67.0,63.0,29.61,NW,314,1.0,3.0,86,0.00,,,0.00,,2013-07-07 08:44:00,
2013-07-07 03:53:00,66.0,62.0,29.62,NW,311,2.0,4.0,87,0.00,,,0.00,,2013-07-07 08:53:00,
2013-07-07 04:02:00,66.0,62.0,29.62,NW,311,2.0,4.0,87,0.00,,,0.00,,2013-07-07 09:02:00,
2013-07-07 04:12:00,66.0,62.0,29.61,NW,306,0.0,4.0,88,0.00,,,0.00,,2013-07-07 09:12:00,
2013-07-07 04:22:00,65.0,62.0,29.61,WNW,302,2.0,5.0,89,0.00,,,0.00,,2013-07-07 09:22:00,
2013-07-07 04:34:00,65.0,62.0,29.61,WNW,302,2.0,5.0,89,0.00,,,0.00,,2013-07-07 09:34:00,
2013-07-07 04:43:00,66.0,63.0,29.62,WNW,302,0.0,4.0,89,0.00,,,0.00,,2013-07-07 09:43:00,
2013-07-07 04:53:00,65.0,61.0,29.62,WNW,303,0.0,3.0,88,0.00,,,0.00,,2013-07-07 09:53:00,
2013-07-07 05:03:00,65.0,61.0,29.62,WNW,303,0.0,3.0,88,0.00,,,0.00,,2013-07-07 10:03:00,
2013-07-07 05:12:00,66.0,63.0,29.63,WNW,302,1.0,3.0,89,0.00,,,0.00,,2013-07-07 10:12:00,
2013-07-07 05:22:00,66.0,63.0,29.62,WNW,297,0.0,4.0,89,0.00,,,0.00,,2013-07-07 10:22:00,
2013-07-07 05:32:00,66.0,63.0,29.62,WNW,297,0.0,4.0,89,0.00,,,0.00,,2013-07-07 10:32:00,
2013-07-07 05:43:00,65.0,62.0,29.63,NW,304,0.0,3.0,89,0.00,,,0.00,,2013-07-07 10:43:00,
2013-07-07 05:52:00,66.0,63.0,29.64,SSW,202,0.0,3.0,89,0.00,,,0.00,,2013-07-07 10:52:00,
2013-07-07 06:02:00,66.0,63.0,29.64,SSW,202,0.0,3.0,89,0.00,,,0.00,,2013-07-07 11:02:00,
2013-07-07 06:11:00,66.0,62.0,29.65,South,184,1.0,3.0,88,0.00,,,0.00,,2013-07-07 11:11:00,
2013-07-07 06:23:00,65.0,62.0,29.66,West,269,0.0,4.0,89,0.00,,,0.00,,2013-07-07 11:23:00,
2013-07-07 06:34:00,65.0,62.0,29.66,West,269,0.0,4.0,89,0.00,,,0.00,,2013-07-07 11:34:00,
2013-07-07 06:43:00,65.0,62.0,29.65,West,274,0.0,3.0,90,0.00,,,0.00,,2013-07-07 11:43:00,
2013-07-07 06:53:00,65.0,62.0,29.66,West,274,0.0,2.0,91,0.00,,,0.00,,2013-07-07 11:53:00,
2013-07-07 07:02:00,65.0,62.0,29.66,West,274,0.0,2.0,91,0.00,,,0.00,,2013-07-07 12:02:00,
2013-07-07 07:12:00,65.0,62.0,29.66,West,274,0.0,3.0,91,0.00,,,0.00,,2013-07-07 12:12:00,
2013-07-07 07:22:00,65.0,62.0,29.67,West,274,0.0,4.0,91,0.00,,,0.00,,2013-07-07 12:22:00,
2013-07-07 07:34:00,65.0,62.0,29.67,West,274,0.0,4.0,91,0.00,,,0.00,,2013-07-07 12:34:00,
2013-07-07 07:43:00,66.0,63.0,29.67,West,274,1.0,2.0,91,0.00,,,0.00,,2013-07-07 12:43:00,
2013-07-07 07:52:00,67.0,64.0,29.67,West,274,0.0,2.0,90,0.00,,,0.00,,2013-07-07 12:52:00,
2013-07-07 08:02:00,67.0,64.0,29.67,West,274,0.0,2.0,90,0.00,,,0.00,,2013-07-07 13:02:00,
2013-07-07 08:11:00,68.0,64.0,29.67,West,274,0.0,2.0,88,0.00,,,0.00,,2013-07-07 13:11:00,
2013-07-07 08:22:00,69.0,65.0,29.68,WNW,293,2.0,5.0,87,0.00,,,0.00,,2013-07-07 13:22:00,
2013-07-07 08:34:00,69.0,65.0,29.68,WNW,293,2.0,5.0,87,0.00,,,0.00,,2013-07-07 13:34:00,
2013-07-07 08:43:00,70.0,65.0,29.67,WNW,293,0.0,3.0,84,0.00,,,0.00,,2013-07-07 13:43:00,
2013-07-07 08:52:00,72.0,66.0,29.69,WNW,289,4.0,7.0,81,0.00,,,0.00,,2013-07-07 13:52:00,
2013-07-07 09:02:00,72.0,66.0,29.69,WNW,289,4.0,7.0,81,0.00,,,0.00,,2013-07-07 14:02:00,
2013-07-07 09:12:00,73.0,66.0,29.68,WNW,282,2.0,5.0,80,0.00,,,0.00,,2013-07-07 14:12:00,
2013-07-07 09:22:00,75.0,68.0,29.69,West,278,2.0,4.0,79,0.00,,,0.00,,2013-07-07 14:22:00,
2013-07-07 09:34:00,75.0,68.0,29.69,West,278,2.0,4.0,79,0.00,,,0.00,,2013-07-07 14:34:00,
2013-07-07 09:43:00,77.0,68.0,29.69,North,360,2.0,4.0,74,0.00,,,0.00,,2013-07-07 14:43:00,
2013-07-07 09:53:00,79.0,68.0,29.69,North,360,3.0,7.0,70,0.00,,,0.00,,2013-07-07 14:53:00,
2013-07-07 10:02:00,79.0,68.0,29.69,North,360,3.0,7.0,70,0.00,,,0.00,,2013-07-07 15:02:00,
2013-07-07 10:11:00,80.0,68.0,29.69,East,98,1.0,5.0,67,0.00,,,0.00,,2013-07-07 15:11:00,
2013-07-07 10:22:00,81.0,68.0,29.69,ENE,65,2.0,5.0,65,0.00,,,0.00,,2013-07-07 15:22:00,
2013-07-07 10:34:00,81.0,68.0,29.69,ENE,65,2.0,5.0,65,0.00,,,0.00,,2013-07-07 15:34:00,
2013-07-07 10:43:00,83.0,69.0,29.69,ENE,61,2.0,5.0,62,0.00,,,0.00,,2013-07-07 15:43:00,
2013-07-07 10:52:00,85.0,70.0,29.69,SE,146,2.0,5.0,60,0.00,,,0.00,,2013-07-07 15:52:00,
2013-07-07 11:01:00,85.0,70.0,29.69,SE,146,2.0,5.0,60,0.00,,,0.00,,2013-07-07 16:01:00,
2013-07-07 11:11:00,86.0,69.0,29.68,NE,49,1.0,5.0,58,0.00,,,0.00,,2013-07-07 16:11:00,
2013-07-07 11:22:00,87.0,69.0,29.67,SSE,150,2.0,7.0,56,0.00,,,0.00,,2013-07-07 16:22:00,
2013-07-07 11:43:00,89.0,69.0,29.67,ESE,119,2.0,7.0,52,0.00,,,0.00,,2013-07-07 16:43:00,
2013-07-07 11:53:00,89.0,68.0,29.68,ENE,63,2.0,7.0,50,0.00,,,0.00,,2013-07-07 16:53:00,
2013-07-07 12:02:00,89.0,68.0,29.68,ENE,63,2.0,7.0,50,0.00,,,0.00,,2013-07-07 17:02:00,
2013-07-07 12:12:00,89.0,68.0,29.68,SE,133,1.0,5.0,51,0.00,,,0.00,,2013-07-07 17:12:00,
2013-07-07 12:22:00,89.0,68.0,29.70,East,90,0.0,4.0,51,0.00,,,0.00,,2013-07-07 17:22:00,
2013-07-07 12:34:00,89.0,68.0,29.70,East,90,0.0,4.0,51,0.00,,,0.00,,2013-07-07 17:34:00,
2013-07-07 12:43:00,89.0,68.0,29.70,SE,135,0.0,5.0,51,0.00,,,0.00,,2013-07-07 17:43:00,
2013-07-07 12:53:00,89.0,69.0,29.70,SE,136,1.0,4.0,52,0.00,,,0.00,,2013-07-07 17:53:00,
2013-07-07 13:02:00,89.0,69.0,29.70,SE,136,1.0,4.0,52,0.00,,,0.00,,2013-07-07 18:02:00,
2013-07-07 13:11:00,89.0,70.0,29.70,SE,138,2.0,7.0,53,0.00,,,0.00,,2013-07-07 18:11:00,
2013-07-07 13:22:00,90.0,70.0,29.70,SE,142,1.0,5.0,52,0.00,,,0.00,,2013-07-07 18:22:00,
2013-07-07 13:33:00,90.0,70.0,29.70,SE,142,1.0,5.0,52,0.00,,,0.00,,2013-07-07 18:33:00,
2013-07-07 13:43:00,90.0,69.0,29.71,SW,230,0.0,4.0,51,0.00,,,0.00,,2013-07-07 18:43:00,
2013-07-07 13:53:00,91.0,68.0,29.71,ENE,64,0.0,5.0,47,0.00,,,0.00,,2013-07-07 18:53:00,
2013-07-07 14:01:00,91.0,68.0,29.71,ENE,64,0.0,5.0,47,0.00,,,0.00,,2013-07-07 19:01:00,
2013-07-07 14:11:00,92.0,68.0,29.70,SSE,150,1.0,6.0,46,0.00,,,0.00,,2013-07-07 19:11:00,
2013-07-07 14:22:00,93.0,68.0,29.70,East,88,0.0,4.0,44,0.00,,,0.00,,2013-07-07 19:22:00,
2013-07-07 14:33:00,93.0,68.0,29.70,East,88,0.0,4.0,44,0.00,,,0.00,,2013-07-07 19:33:00,
2013-07-07 14:43:00,92.0,68.0,29.70,SE,143,1.0,5.0,46,0.00,,,0.00,,2013-07-07 19:43:00,
2013-07-07 14:54:00,92.0,68.0,29.70,SSE,152,2.0,6.0,46,0.00,,,0.00,,2013-07-07 19:54:00,
2013-07-07 15:02:00,92.0,68.0,29.70,SSE,152,2.0,6.0,46,0.00,,,0.00,,2013-07-07 20:02:00,
2013-07-07 15:11:00,91.0,71.0,29.69,SE,137,2.0,7.0,52,0.00,,,0.00,,2013-07-07 20:11:00,
2013-07-07 15:22:00,89.0,71.0,29.69,SSE,148,3.0,8.0,55,0.00,,,0.00,,2013-07-07 20:22:00,
2013-07-07 15:34:00,89.0,71.0,29.69,SSE,148,3.0,8.0,55,0.00,,,0.00,,2013-07-07 20:34:00,
2013-07-07 15:42:00,88.0,69.0,29.69,SE,132,4.0,8.0,54,0.00,,,0.00,,2013-07-07 20:42:00,
2013-07-07 15:53:00,89.0,71.0,29.69,SE,135,2.0,7.0,56,0.00,,,0.00,,2013-07-07 20:53:00,
2013-07-07 16:02:00,89.0,71.0,29.69,SE,135,2.0,7.0,56,0.00,,,0.00,,2013-07-07 21:02:00,
2013-07-07 16:11:00,91.0,71.0,29.69,SSE,148,2.0,6.0,52,0.00,,,0.00,,2013-07-07 21:11:00,
2013-07-07 16:22:00,92.0,69.0,29.68,SSW,195,2.0,7.0,48,0.00,,,0.00,,2013-07-07 21:22:00,
2013-07-07 16:33:00,92.0,69.0,29.68,SSW,195,2.0,7.0,48,0.00,,,0.00,,2013-07-07 21:33:00,
2013-07-07 16:43:00,92.0,68.0,29.68,SSE,153,3.0,7.0,46,0.00,,,0.00,,2013-07-07 21:43:00,
2013-07-07 16:53:00,92.0,69.0,29.67,SE,136,3.0,8.0,47,0.00,,,0.00,,2013-07-07 21:53:00,
2013-07-07 17:01:00,92.0,69.0,29.67,SE,136,3.0,8.0,47,0.00,,,0.00,,2013-07-07 22:01:00,
2013-07-07 17:11:00,93.0,70.0,29.67,South,186,3.0,9.0,47,0.00,,,0.00,,2013-07-07 22:11:00,
2013-07-07 17:22:00,92.0,70.0,29.67,SE,139,2.0,6.0,49,0.00,,,0.00,,2013-07-07 22:22:00,
2013-07-07 17:34:00,92.0,70.0,29.67,SE,139,2.0,6.0,49,0.00,,,0.00,,2013-07-07 22:34:00,
2013-07-07 17:43:00,92.0,70.0,29.67,SE,140,4.0,8.0,49,0.00,,,0.00,,2013-07-07 22:43:00,
2013-07-07 17:53:00,92.0,69.0,29.67,SSE,162,3.0,7.0,48,0.00,,,0.00,,2013-07-07 22:53:00,
2013-07-07 18:02:00,92.0,69.0,29.67,SSE,162,3.0,7.0,48,0.00,,,0.00,,2013-07-07 23:02:00,
2013-07-07 18:12:00,91.0,69.0,29.67,SSE,154,3.0,9.0,49,0.00,,,0.00,,2013-07-07 23:12:00,
2013-07-07 18:22:00,91.0,69.0,29.67,SE,138,3.0,11.0,49,0.00,,,0.00,,2013-07-07 23:22:00,
2013-07-07 18:33:00,91.0,69.0,29.67,SE,138,3.0,11.0,49,0.00,,,0.00,,2013-07-07 23:33:00,
2013-07-07 18:43:00,91.0,70.0,29.67,SE,127,3.0,10.0,51,0.00,,,0.00,,2013-07-07 23:43:00,
2013-07-07 18:52:00,91.0,70.0,29.66,SSE,165,3.0,8.0,50,0.00,,,0.00,,2013-07-07 23:52:00,
2013-07-07 19:01:00,91.0,70.0,29.66,SSE,165,3.0,8.0,50,0.00,,,0.00,,2013-07-08 00:01:00,
2013-07-07 19:11:00,91.0,70.0,29.66,SSE,162,1.0,7.0,51,0.00,,,0.00,,2013-07-08 00:11:00,
2013-07-07 19:22:00,90.0,71.0,29.66,ESE,121,1.0,5.0,53,0.00,,,0.00,,2013-07-08 00:22:00,
2013-07-07 19:33:00,90.0,71.0,29.66,ESE,121,1.0,5.0,53,0.00,,,0.00,,2013-07-08 00:33:00,
2013-07-07 19:43:00,90.0,72.0,29.67,SSE,164,1.0,5.0,55,0.00,,,0.00,,2013-07-08 00:43:00,
2013-07-07 19:53:00,90.0,71.0,29.67,ENE,78,1.0,4.0,54,0.00,,,0.00,,2013-07-08 00:53:00,
2013-07-07 20:01:00,90.0,71.0,29.67,ENE,78,1.0,4.0,54,0.00,,,0.00,,2013-07-08 01:01:00,
2013-07-07 20:11:00,89.0,70.0,29.66,SE,128,1.0,5.0,53,0.00,,,0.00,,2013-07-08 01:11:00,
2013-07-07 20:22:00,87.0,69.0,29.68,NE,46,0.0,6.0,55,0.00,,,0.00,,2013-07-08 01:22:00,
2013-07-07 20:32:00,87.0,69.0,29.68,NE,46,0.0,6.0,55,0.00,,,0.00,,2013-07-08 01:32:00,
2013-07-07 20:43:00,86.0,70.0,29.68,SSE,150,1.0,4.0,59,0.00,,,0.00,,2013-07-08 01:43:00,
2013-07-07 20:52:00,85.0,69.0,29.68,SSE,153,0.0,5.0,59,0.00,,,0.00,,2013-07-08 01:52:00,
2013-07-07 21:02:00,85.0,69.0,29.68,SSE,153,0.0,5.0,59,0.00,,,0.00,,2013-07-08 02:02:00,
2013-07-07 21:11:00,85.0,70.0,29.68,SE,144,0.0,3.0,61,0.00,,,0.00,,2013-07-08 02:11:00,
2013-07-07 21:22:00,84.0,70.0,29.70,NE,53,1.0,4.0,64,0.00,,,0.00,,2013-07-08 02:22:00,
2013-07-07 21:33:00,84.0,70.0,29.70,NE,53,1.0,4.0,64,0.00,,,0.00,,2013-07-08 02:33:00,
2013-07-07 21:42:00,83.0,71.0,29.70,ESE,122,0.0,2.0,67,0.00,,,0.00,,2013-07-08 02:42:00,
2013-07-07 21:52:00,83.0,71.0,29.70,SE,144,0.0,3.0,68,0.00,,,0.00,,2013-07-08 02:52:00,
2013-07-07 22:01:00,83.0,71.0,29.70,SE,144,0.0,3.0,68,0.00,,,0.00,,2013-07-08 03:01:00,
2013-07-07 22:12:00,82.0,71.0,29.69,SSE,161,2.0,9.0,70,0.00,,,0.00,,2013-07-08 03:12:00,
2013-07-07 22:23:00,81.0,71.0,29.71,SSE,148,0.0,4.0,72,0.00,,,0.00,,2013-07-08 03:23:00,
2013-07-07 22:34:00,81.0,71.0,29.71,SSE,148,0.0,4.0,72,0.00,,,0.00,,2013-07-08 03:34:00,
2013-07-07 22:42:00,81.0,72.0,29.72,SE,124,1.0,3.0,73,0.00,,,0.00,,2013-07-08 03:42:00,
2013-07-07 22:52:00,80.0,71.0,29.73,SE,125,0.0,3.0,75,0.00,,,0.00,,2013-07-08 03:52:00,
2013-07-07 23:01:00,80.0,71.0,29.73,SE,125,0.0,3.0,75,0.00,,,0.00,,2013-07-08 04:01:00,
2013-07-07 23:12:00,80.0,71.0,29.73,ENE,76,2.0,6.0,75,0.00,,,0.00,,2013-07-08 04:12:00,
2013-07-07 23:22:00,80.0,71.0,29.73,ENE,76,2.0,6.0,75,0.00,,,0.00,,2013-07-08 04:22:00,
2013-07-07 23:33:00,80.0,69.0,29.75,NNE,30,2.0,5.0,70,0.00,,,0.00,,2013-07-08 04:33:00,
2013-07-07 23:42:00,79.0,70.0,29.77,NNE,28,2.0,12.0,74,0.00,,,0.00,,2013-07-08 04:42:00,
2013-07-07 23:53:00,76.0,70.0,29.78,West,271,1.0,8.0,81,0.04,,,0.04,,2013-07-08 04:53:00,